Location: Molveno
(46.1500°N, 10.9667°E)
Time: 16:07:03
(UTC+00:00)

Cosmos 783 Rocket - Pass Details

Date: 05 July 2020
Orbit: 758 x 780 km, 74.1° (Epoch: 10 August)

Event Time Altitude Azimuth Distance (km) Brightness Sun altitude
Rises 20:23:47 0° 199° (SSW) 3,227 7.4 -10.3°
Reaches altitude 10° 20:26:09 10° 199° (SSW) 2,301 6.7 -10.6°
Maximum altitude 20:31:23 88° 111° (ESE) 771 4.5 -11.2°
Drops below altitude 10° 20:36:37 10° 22° (NNE) 2,305 7.4 -11.8°
Sets 20:39:00 0° 22° (NNE) 3,232 8.2 -12.0°
